This demonstration page uses our WeatherBlox Daily Observations layout. Learn more.

Left ArrowRight Arrow

40.92945, -100.16068

Hourly Observations for October 28, 2018

Temp ( °F °C ) Dew Point ( °F °C ) Humidity (%) Winds ( mph kmh ) Pressure ( in mb ) Visibility ( mi km ) Precip ( " mm )
12:15 am 00:15 Partly Cloudy 53 11.5 42 5.7 68 68 NW 9 15 30.03 1017 10 16.0934 0 0
12:35 am 00:35 Partly Cloudy 52 11.1 42 5.7 70 70 NNW 8 13 30.03 1017 10 16.0934 0 0
12:55 am 00:55 Clear 51 10.7 41 5.1 69 69 NNW 9 15 30.03 1017 10 16.0934 0 0
1:15 am 01:15 Clear 51 10.3 40 4.6 68 68 NNW 9 15 30.03 1017 10 16.0934 0 0
1:35 am 01:35 Partly Cloudy 51 10.7 40 4.3 65 65 NNW 9 15 30.06 1018 10 16.0934 0 0
1:55 am 01:55 Clear 51 10.7 38 3.6 62 62 NNW 15 24 30.06 1018 10 16.0934 0 0
2:15 am 02:15 Clear 49 9.7 38 3.6 66 66 NNW 9 15 30.12 1020 10 16.0934 0 0
2:35 am 02:35 Clear 49 9.4 37 2.9 64 64 NNW 12 19 30.12 1020 10 16.0934 0 0
2:55 am 02:55 Clear 47 8.5 37 2.5 66 66 NNW 10 17 30.12 1020 10 16.0934 0 0
3:15 am 03:15 Clear 45 7.2 36 2.4 72 72 NW 10 17 30.15 1021 10 16.0934 0 0
3:35 am 03:35 Clear 44 6.8 35 1.8 71 71 NW 8 13 30.15 1021 10 16.0934 0 0
3:55 am 03:55 Clear 42 5.4 34 1.2 75 75 WNW 8 13 30.18 1022 10 16.0934 0 0
4:15 am 04:15 Clear 41 5 34 1.1 76 76 NW 8 13 30.18 1022 10 16.0934 0 0
4:35 am 04:35 Clear 39 4 33 0.6 79 79 WNW 9 15 30.21 1023 10 16.0934 0 0
4:55 am 04:55 Clear 38 3.6 34 1 83 83 W 9 15 30.21 1023 10 16.0934 0 0
5:15 am 05:15 Clear 39 3.7 34 1.1 83 83 W 9 15 30.21 1023 10 16.0934 0 0
5:35 am 05:35 Clear 39 3.9 34 1 82 82 W 9 15 30.21 1023 10 16.0934 0 0
5:55 am 05:55 Clear 38 3.6 33 0.7 82 82 W 7 11 30.21 1023 10 16.0934 0 0
6:15 am 06:15 Clear 38 3.3 33 0.5 82 82 WNW 7 11 30.21 1023 10 16.0934 0 0
6:35 am 06:35 Clear 38 3.2 33 0.5 83 83 NW 6 9 30.24 1024 10 16.0934 0 0
6:55 am 06:55 Clear 38 3.3 33 0.7 83 83 WNW 3 6 30.24 1024 10 16.0934 0 0
7:15 am 07:15 Clear 37 3 33 0.5 84 84 Calm 30.24 1024 10 16.0934 0 0
7:35 am 07:35 Clear 37 2.6 33 0.3 85 85 NW 7 11 30.21 1023 10 16.0934 0 0
7:55 am 07:55 Clear 36 2 32 0 87 87 WNW 6 9 30.21 1023 10 16.0934 0 0
8:15 am 08:15 Sunny 35 1.7 32 0 89 89 W 3 6 30.27 1025 10 16.0934 0 0
8:35 am 08:35 Sunny 36 2.3 32 0.2 86 86 WNW 7 11 30.24 1024 10 16.0934 0 0
8:55 am 08:55 Sunny 38 3.6 34 1.3 85 85 WNW 8 13 30.24 1024 10 16.0934 0 0
9:15 am 09:15 Sunny 41 4.8 36 2 82 82 WNW 8 13 30.24 1024 10 16.0934 0 0
9:35 am 09:35 Sunny 43 6.1 37 2.6 79 79 WNW 10 17 30.21 1023 10 16.0934 0 0
9:55 am 09:55 Sunny 45 7.4 37 2.8 73 73 WNW 9 15 30.21 1023 10 16.0934 0 0
10:15 am 10:15 Sunny 48 8.7 38 3.2 69 69 WNW 10 17 30.18 1022 10 16.0934 0 0
10:35 am 10:35 Sunny 50 10.1 38 3.6 64 64 WNW 10 17 30.21 1023 10 16.0934 0 0
10:55 am 10:55 Sunny 53 11.5 37 3 56 56 WNW 10 17 30.21 1023 10 16.0934 0 0
11:15 am 11:15 Sunny 55 12.9 37 2.9 51 51 WNW 10 17 30.18 1022 10 16.0934 0 0
11:35 am 11:35 Sunny 57 13.9 38 3.1 48 48 WNW 7 11 30.18 1022 10 16.0934 0 0
11:55 am 11:55 Sunny 59 15.1 37 2.9 44 44 NW 7 11 30.12 1020 10 16.0934 0 0
12:15 pm 12:15 Sunny 61 16 37 2.8 41 41 WNW 9 15 30.12 1020 10 16.0934 0 0
12:35 pm 12:35 Sunny 62 16.6 37 2.5 39 39 WNW 9 15 30.12 1020 10 16.0934 0 0
12:55 pm 12:55 Sunny 63 17.2 35 1.4 35 35 WNW 7 11 30.12 1020 10 16.0934 0 0
1:15 pm 13:15 Sunny 64 17.6 33 0.6 32 32 WNW 7 11 30.09 1019 10 16.0934 0 0
1:35 pm 13:35 Sunny 65 18.1 30 -1 28 28 NW 9 15 30.06 1018 10 16.0934 0 0
1:55 pm 13:55 Sunny 65 18.3 30 -1.3 27 27 NNW 7 11 30.03 1017 10 16.0934 0 0
2:15 pm 14:15 Sunny 65 18.5 29 -1.4 26 26 W 5 7 30.03 1017 10 16.0934 0 0
2:35 pm 14:35 Sunny 66 18.8 30 -1.3 26 26 NW 6 9 30.03 1017 10 16.0934 0 0
2:55 pm 14:55 Sunny 67 19.4 30 -1.2 25 25 WNW 6 9 30.03 1017 10 16.0934 0 0
3:15 pm 15:15 Sunny 66 19.1 30 -1 26 26 Calm 30 1016 10 16.0934 0 0
3:35 pm 15:35 Sunny 67 19.7 31 -0.5 26 26 WSW 5 7 30 1016 10 16.0934 0 0
3:55 pm 15:55 Sunny 68 19.8 31 -0.7 25 25 Calm 30 1016 10 16.0934 0 0
4:15 pm 16:15 Sunny 68 19.9 32 -0.2 26 26 S 5 7 30 1016 10 16.0934 0 0
4:35 pm 16:35 Sunny 68 20 31 -0.5 25 25 W 6 9 29.97 1015 10 16.0934 0 0
4:55 pm 16:55 Sunny 67 19.7 32 -0.2 26 26 SSW 7 11 29.97 1015 10 16.0934 0 0
5:15 pm 17:15 Sunny 67 19.5 31 -0.5 26 26 SSW 8 13 30 1016 10 16.0934 0 0
5:35 pm 17:35 Sunny 66 19 33 0.6 29 29 SSW 9 15 29.97 1015 10 16.0934 0 0
5:55 pm 17:55 Sunny 65 18.4 35 1.4 32 32 SSW 6 9 29.97 1015 10 16.0934 0 0
6:15 pm 18:15 Sunny 62 16.9 35 1.6 36 36 S 6 9 29.97 1015 10 16.0934 0 0
6:35 pm 18:35 Sunny 59 14.8 34 1.2 40 40 S 7 11 30 1016 10 16.0934 0 0
6:55 pm 18:55 Clear 55 12.7 35 1.7 47 47 S 8 13 30.03 1017 10 16.0934 0 0
7:15 pm 19:15 Clear 55 12.6 33 0.8 45 45 S 7 11 30.03 1017 10 16.0934 0 0
7:35 pm 19:35 Clear 55 12.8 33 0.3 43 43 SSE 6 9 30.03 1017 10 16.0934 0 0
7:55 pm 19:55 Clear 51 10.3 34 1 53 53 SSE 6 9 30.03 1017 10 16.0934 0 0
8:15 pm 20:15 Clear 54 12.3 32 0.2 44 44 SSE 6 9 30.03 1017 10 16.0934 0 0
8:35 pm 20:35 Clear 51 10.7 33 0.6 50 50 SSE 7 11 30.03 1017 10 16.0934 0 0
8:55 pm 20:55 Clear 50 10 34 0.9 54 54 SSE 6 9 30.06 1018 10 16.0934 0 0
9:15 pm 21:15 Clear 49 9.5 33 0.6 54 54 SSE 8 13 30.06 1018 10 16.0934 0 0
9:35 pm 21:35 Clear 48 9 33 0.8 57 57 SSE 7 11 30.06 1018 10 16.0934 0 0
9:55 pm 21:55 Clear 47 8.5 33 0.6 58 58 SSE 8 13 30.06 1018 10 16.0934 0 0
10:15 pm 22:15 Clear 47 8.2 34 0.9 60 60 SSE 8 13 30.06 1018 10 16.0934 0 0
10:35 pm 22:35 Clear 46 7.6 33 0.8 62 62 SSE 7 11 30.06 1018 10 16.0934 0 0
10:55 pm 22:55 Clear 46 7.9 34 1 62 62 S 9 15 30.06 1018 10 16.0934 0 0
11:15 pm 23:15 Clear 46 7.6 34 1.2 64 64 S 8 13 30.06 1018 10 16.0934 0 0
11:35 pm 23:35 Clear 44 6.8 34 1.1 67 67 S 8 13 30.09 1019 10 16.0934 0 0
11:55 pm 23:55 Clear 44 6.6 35 1.5 70 70 S 9 15 30.09 1019 10 16.0934 0 0

Powered by AerisWeather